#timestamp,LO_Frequency,Hit,StdDev 
1548090015.4,286046995.3,N
1548090035.2,286046996.0,N
1548090055.1,286046996.0,N
1548090056.0,286046996.0,N
1548090075.8,286046996.2,N
1548090095.6,286046997.1,N
1548090115.5,286046996.8,N
1548090135.3,286046995.6,N
1548090155.2,286046994.0,N
1548090175.9,286046995.7,N
1548090195.7,286046995.9,N
1548090215.6,286046993.9,N
1548090235.4,286046994.2,N
1548090255.2,286046995.5,N
1548090275.1,286046996.3,N
1548090276.0,286046996.3,N
1548090295.8,286046996.1,N
1548090315.7,286046995.4,N
1548090335.5,286046999.6,N
1548090355.3,286046998.6,N
1548090375.2,286046996.7,N
1548090395.0,286046997.2,N
1548090395.9,286046997.2,N
1548090415.7,286046998.0,N
1548090435.6,286046995.8,N
1548090455.4,286046993.3,Y
1548090475.3,286046999.0,P
1548090495.1,286046999.3,N
1548090515.8,286046999.0,N
1548090535.7,286046998.3,N
1548090555.5,286047001.2,N
1548090575.4,286047000.4,N
1548090595.2,286047000.7,N
1548090615.0,286046998.1,N
1548090615.9,286046998.1,N
1548090635.8,286047000.6,N
1548090655.6,286047000.6,N
1548090675.4,286047000.0,N
1548090695.3,286046999.7,N
1548090715.1,286047001.7,N
1548090735.9,286047002.3,N
1548090755.7,286046999.9,N
1548090775.5,286046996.8,N
1548090795.4,286046997.8,N
1548090815.2,286046996.6,N
1548090835.0,286046997.8,N
1548090835.9,286046997.8,N
1548090855.8,286046997.8,N
1548090875.6,286046996.8,N
1548090895.5,286046999.4,N
1548090915.3,286046997.1,N
1548090935.1,286046994.9,Y
1548090955.9,286046999.1,P
1548090975.7,286046999.4,P
1548090995.6,286046998.3,P
1548091015.4,286046997.1,Y
1548091035.2,286046998.7,P
1548091055.1,286047000.0,N
1548091056.0,286047000.0,N
1548091075.8,286047002.6,Y
1548091095.7,286046999.7,P
1548091115.5,286047002.1,P
1548091135.3,286047005.4,P
1548091155.2,286047004.8,N
1548091175.0,286047002.9,N
1548091175.9,286047002.9,N
1548091195.8,286047005.8,N
1548091215.6,286047003.6,N
1548091235.4,286047002.0,N
1548091255.3,286047000.3,N
1548091275.1,286046998.7,N
1548091295.9,286047000.8,N
1548091315.7,286047000.6,N
1548091335.5,286047000.8,N
1548091355.4,286046999.7,N
1548091375.2,286047002.6,N
1548091395.0,286047002.5,N
1548091395.9,286047002.5,N
1548091415.8,286047003.9,N
1548091435.6,286047004.9,N
1548091455.5,286047004.5,N
1548091475.3,286047004.9,N
1548091495.1,286047005.8,N
1548091515.9,286047005.4,N
1548091535.7,286047005.9,N
1548091555.5,286047001.6,N
1548091575.4,286047000.3,N
1548091595.2,286046999.9,N
1548091615.1,286047000.0,N
1548091616.0,286047000.0,N
1548091635.8,286047000.2,N
1548091655.6,286047000.4,N
1548091675.5,286047002.2,N
1548091695.3,286047001.2,N
1548091715.1,286046998.5,N
1548091735.9,286047000.3,N
1548091755.7,286046999.2,N
1548091775.6,286046999.0,N
1548091795.4,286046999.0,N
1548091815.2,286046999.2,N
1548091835.1,286046998.7,N
1548091836.0,286046998.7,N
1548091855.8,286046999.8,N
1548091875.6,286047002.0,N
1548091895.5,286047002.3,N
1548091915.6,286047002.7,N
1548091935.4,286047002.2,N
1548091955.2,286047001.8,N
1548091975.1,286047001.4,N
1548091976.0,286047001.4,N
1548091995.8,286047002.0,N
1548092015.7,286047002.9,N
1548092035.5,286047004.5,N
1548092055.3,286047006.7,Y
1548092075.2,286047003.8,P
1548092095.0,286047001.8,N
1548092095.9,286047001.8,N
1548092115.8,286047000.2,N
1548092135.6,286047001.9,N
1548092155.4,286047002.2,N
1548092175.3,286046999.9,N
1548092195.1,286046996.9,N
1548092215.8,286046997.7,N
1548092235.7,286046995.3,N
1548092255.8,286046995.0,N
1548092275.6,286046995.5,N
1548092295.5,286046994.0,N
1548092315.3,286046994.8,N
1548092335.2,286046996.3,N
1548092355.9,286046998.0,N
1548092375.7,286046997.7,N
1548092395.6,286046999.6,N
1548092415.4,286046999.4,N
1548092435.2,286046999.4,N
1548092455.1,286046998.3,N
1548092456.0,286046998.3,N
1548092475.8,286047000.6,N
1548092495.7,286046999.0,N
1548092515.5,286046999.5,N
1548092535.3,286047000.1,N
1548092555.2,286047002.8,N
1548092575.0,286047001.5,N
1548092575.9,286047001.5,N
1548092595.8,286047003.7,N
1548092615.6,286047005.8,N
1548092635.4,286047007.0,N
1548092655.3,286047006.1,N
1548092675.1,286047008.0,N
1548092695.9,286047010.3,N
1548092715.7,286047009.5,N
1548092735.5,286047010.1,N
1548092755.4,286047008.3,N
1548092775.2,286047003.9,N
1548092795.1,286047005.8,N
1548092796.0,286047005.8,N
1548092815.8,286047006.2,N
1548092835.6,286047006.4,N
1548092855.5,286047006.6,N
1548092875.3,286047006.7,N
1548092895.1,286047007.5,N
1548092915.9,286047007.1,N
1548092935.7,286047007.3,N
1548092955.6,286047009.1,N
1548092975.4,286047004.6,N
1548092995.2,286047005.0,N
1548093015.1,286047007.2,N
1548093016.0,286047007.2,N
1548093035.8,286047008.6,N
1548093055.7,286047010.7,Y
1548093075.5,286047004.8,P
1548093095.3,286047005.7,P
1548093115.2,286047002.2,P
1548093135.0,286047001.2,N
1548093135.9,286047001.2,N
1548093155.8,286046998.3,N
1548093175.6,286047001.1,N
1548093195.4,286047002.8,N
1548093215.3,286047000.8,N
1548093235.1,286047001.1,N
1548093255.8,286046998.8,N
1548093275.7,286046997.2,N
1548093295.5,286046998.9,N
1548093315.4,286046998.5,N
1548093335.2,286046997.6,N
1548093355.0,286046995.8,N
1548093355.9,286046995.8,N
1548093375.8,286046999.5,N
1548093395.6,286046997.3,N
1548093415.4,286046997.6,N
1548093435.3,286046996.8,N
1548093455.1,286046999.0,N
1548093475.9,286046997.6,N
1548093495.7,286046995.7,N
1548093515.5,286046994.1,N
1548093535.4,286046991.8,N
1548093555.2,286046995.4,N
1548093575.0,286046995.5,N
1548093575.9,286046995.5,N
1548093595.8,286046994.0,N
